GEFSSE_con_cape1000_282.txt.gz
Probability
6 13 65 68 48 55 48 42 42 42 45 52 45 48 45 48 55 55 65 65 61 58 65 68 65 68 58 58 58 61 58 55 65 58 58 48 45 42 42 39 42 42 61
6 19 68 68 65 55 45 45 48 52 61 55 52 58 48 48 55 58 65 68 65 61 65 68 74 68 55 55 68 58 61 65 58 52 48 42 42 35 29 39 45 39 58
10 13 35 68 61 52 45 52 61 65 65 58 55 55 65 61 61 65 65 65 65 74 68 71 65 61 65 61 65 58 58 65 65 48 48 29 29 42 42 52 52 52 48
6 10 19 71 65 65 58 55 58 55 61 68 65 52 58 58 61 61 61 65 71 68 61 61 61 55 58 61 52 45 45 52 52 45 35 23 23 35 48 42 48 48 45
13 26 42 81 77 65 65 58 55 61 58 65 61 58 55 58 55 58 58 68 71 65 61 61 58 55 52 45 42 29 35 35 39 29 23 16 19 29 39 35 45 35 32
16 16 39 90 81 81 74 65 61 65 58 58 58 61 58 58 58 58 58 65 68 58 55 58 55 48 39 39 42 26 29 32 35 26 19 26 23 52 42 29 29 35 29
16 26 32 87 77 77 71 68 61 68 65 65 58 61 61 58 61 61 61 61 58 55 52 42 45 39 35 39 32 26 32 45 35 23 16 23 29 61 52 42 39 35 29
16 23 35 81 81 84 71 58 52 61 68 65 55 55 65 61 65 61 61 58 52 42 42 42 42 42 39 32 32 42 45 45 23 10 23 19 29 55 45 39 39 29 29
16 19 29 42 52 74 71 61 52 61 58 58 55 55 55 61 68 68 61 52 48 45 42 32 42 35 32 29 32 45 55 65 26 16 6 13 35 55 42 39 35 26 32
13 16 29 23 39 35 55 71 65 58 65 65 58 61 61 61 58 61 71 58 42 39 42 29 23 26 32 35 39 45 52 42 19 16 13 16 45 45 45 45 35 32 42
16 16 16 23 26 23 19 35 61 74 68 71 65 71 68 45 35 45 32 55 32 32 32 23 32 35 39 48 48 58 55 16 29 10 19 32 55 52 45 39 42 45 42
19 23 23 23 26 26 16 45 48 39 58 58 65 61 65 71 68 26 32 55 45 42 26 23 35 39 35 23 32 48 19 13 19 10 32 55 68 48 32 35 42 42 35
10 16 19 26 39 29 45 39 45 52 65 58 55 71 74 61 42 39 45 45 55 32 16 39 45 35 26 35 35 23 19 23 19 16 26 71 68 58 42 35 35 35 39
23 16 26 29 55 65 61 58 55 45 52 58 71 74 74 74 71 58 68 52 61 61 65 52 45 32 32 26 29 23 29 29 26 19 29 55 55 55 52 48 45 39 45
35 29 42 58 68 71 74 68 48 52 48 55 77 77 77 71 71 74 74 74 65 68 68 68 68 45 39 29 23 26 35 35 29 19 26 55 48 52 48 39 35 35 39
35 42 52 48 68 71 68 68 65 52 68 61 68 68 77 74 74 81 77 71 68 65 68 74 58 52 45 42 32 39 48 48 55 55 42 45 55 48 45 45 42 39 35
48 48 52 58 68 77 71 65 55 55 55 65 74 71 68 71 74 71 65 71 68 65 65 74 65 61 55 45 55 52 55 55 45 58 45 48 39 39 39 42 39 42 35
52 71 58 29 52 77 81 74 65 61 65 74 68 65 68 74 74 68 68 71 74 71 74 74 65 58 65 68 68 65 65 68 52 48 39 35 35 29 29 35 35 35 42
61 81 77 74 68 71 74 71 71 71 68 68 74 74 74 74 71 74 71 74 71 77 77 74 81 74 68 71 61 65 65 55 58 26 32 32 39 39 29 23 35 35 32
61 74 81 87 84 84 71 68 71 68 68 77 77 81 74 74 74 81 71 77 77 74 74 77 77 77 71 61 42 42 52 45 52 45 39 32 29 29 26 26 26 16 16
71 77 77 77 81 81 74 68 71 71 71 74 74 71 77 77 74 71 71 77 81 77 81 77 81 65 71 68 55 52 52 45 48 45 42 32 32 26 19 26 23 26 16
74 77 81 84 81 81 81 81 77 74 68 68 74 71 68 68 77 58 84 77 74 84 68 68 74 65 58 58 61 55 52 48 42 23 39 32 23 26 23 16 26 13 13
71 74 74 81 87 87 84 68 77 77 74 74 74 74 68 71 74 71 74 74 77 74 77 68 74 65 65 65 65 58 45 42 39 39 29 32 26 23 16 16 13 16 16
68 68 71 77 84 84 77 81 74 74 74 74 71 81 71 71 68 68 71 74 84 71 81 68 68 68 65 61 52 52 48 42 45 23 35 26 19 19 16 13 10 6 16
58 68 71 81 81 81 84 87 81 71 74 77 77 77 74 74 65 65 74 77 77 74 71 68 71 68 68 55 58 58 48 52 42 32 29 23 19 16 19 23 13 10 13
55 68 71 81 81 81 84 84 84 87 84 81 77 81 81 81 74 58 65 71 74 71 71 71 65 65 65 58 61 58 52 42 26 29 32 32 29 26 23 19 19 19 13

GEFSSE_con_cape1000_288.txt.gz
Probability
13 23 71 68 71 61 58 68 61 61 61 65 61 61 55 58 58 65 65 71 77 81 77 77 74 71 68 68 65 65 68 65 74 74 68 65 68 61 65 71 61 61 74
16 26 71 71 71 71 81 71 71 65 65 68 65 61 58 61 68 68 65 74 81 77 77 81 71 68 65 61 58 61 55 61 68 61 58 52 61 68 65 58 55 52 71
13 23 58 84 68 68 71 74 68 65 65 68 65 61 61 61 68 61 68 74 74 74 74 74 61 65 65 65 58 55 58 55 58 55 48 23 26 61 68 68 71 65 65
10 13 29 77 71 61 65 65 68 71 68 65 65 68 68 74 71 68 68 74 74 68 65 71 61 58 55 58 61 58 45 55 48 35 23 16 19 52 65 68 71 61 58
10 13 35 74 74 68 61 61 65 65 61 71 65 74 74 74 68 74 71 71 68 68 61 55 58 52 45 45 52 48 52 55 45 26 13 3 10 45 58 61 58 48 48
10 23 45 84 74 74 71 65 65 61 58 58 68 71 77 74 65 68 74 71 65 61 65 58 48 48 48 45 45 52 58 58 26 16 6 3 6 42 61 61 65 42 48
16 26 42 81 77 74 81 68 65 68 71 65 68 65 65 65 65 71 71 65 61 58 55 52 52 48 42 29 39 45 48 35 16 6 6 3 6 48 61 58 52 45 45
19 26 52 87 77 81 84 77 65 71 68 71 65 65 65 68 68 71 71 65 52 55 58 52 42 39 42 35 35 42 48 39 6 6 3 3 23 58 58 58 45 42 42
19 23 32 48 61 77 81 81 74 74 71 71 71 65 68 61 65 74 77 68 61 58 52 42 39 35 39 39 42 39 39 48 10 6 6 10 32 52 48 48 58 48 42
16 19 19 29 32 39 58 77 74 77 77 81 74 77 74 65 61 65 71 74 55 52 42 35 35 35 45 45 55 55 48 29 6 3 3 10 42 58 45 39 48 45 45
3 10 16 16 16 16 23 58 61 68 77 77 71 81 68 35 39 52 55 65 52 45 45 39 35 48 52 45 45 45 32 6 6 6 6 16 39 42 48 52 42 39 45
0 0 10 13 13 10 13 19 26 39 42 26 26 26 23 10 13 23 48 65 52 52 45 42 55 55 26 10 13 19 6 6 6 10 6 29 45 48 42 45 39 35 32
0 0 0 3 3 0 6 10 10 10 10 10 6 6 3 6 6 10 13 23 32 35 13 23 19 13 13 13 13 10 6 6 6 10 10 42 55 55 52 45 48 39 35
0 3 0 0 0 0 6 10 10 6 6 6 13 13 3 0 0 0 0 0 3 6 3 3 3 10 3 6 6 6 3 6 3 3 3 35 48 52 55 55 45 52 58
0 3 0 0 3 0 3 6 10 3 6 6 6 0 0 3 0 0 0 0 0 3 3 0 0 0 0 3 6 6 3 0 0 3 3 32 42 45 52 52 45 52 58
3 13 13 13 6 0 6 6 6 0 6 3 0 6 3 3 3 3 3 3 3 3 3 0 0 0 0 3 3 3 3 3 3 3 3 13 45 52 52 45 42 39 42
10 10 10 16 6 6 10 13 10 6 10 6 6 6 6 3 0 0 0 0 3 0 0 3 3 3 3 3 3 0 0 3 3 3 3 6 19 45 48 45 45 39 39
6 6 10 23 16 6 6 6 6 10 13 10 10 3 10 3 3 0 3 6 3 3 3 3 6 3 6 3 0 0 0 6 3 3 3 3 0 3 26 35 32 32 29
10 6 10 16 16 10 13 10 10 10 10 10 6 10 10 6 3 3 6 3 10 13 10 6 6 6 6 6 6 3 3 3 6 6 10 3 3 3 0 13 26 23 26
6 10 19 16 13 16 10 10 6 10 6 6 0 6 3 10 13 10 6 10 13 16 13 6 6 3 6 6 3 3 3 0 3 3 6 6 3 6 3 0 6 16 23
13 16 13 16 19 16 10 10 6 3 3 10 3 6 10 10 10 6 13 13 13 13 6 10 6 3 3 3 3 3 0 3 3 3 3 3 3 6 0 0 0 0 6
13 19 23 19 16 16 16 16 10 10 6 10 19 10 13 19 13 23 16 13 13 16 6 6 3 3 3 3 3 0 0 0 0 3 3 0 0 0 3 3 0 0 0
13 19 29 26 16 19 26 16 16 10 10 10 16 10 19 16 23 23 19 26 19 23 13 6 3 6 10 6 3 0 0 0 0 0 3 3 3 0 0 0 0 3 0
13 19 19 26 32 26 19 19 13 6 6 6 10 16 19 23 26 29 29 29 23 16 10 10 6 6 13 10 3 3 0 0 0 0 0 0 0 0 0 0 0 0 0
29 19 16 29 26 26 23 10 6 3 3 3 10 13 16 23 23 23 23 26 23 19 19 19 6 10 6 6 10 10 3 3 0 0 0 0 0 0 0 0 0 0 0
26 39 35 32 29 32 32 19 16 13 10 19 16 13 16 16 19 26 32 29 23 19 19 26 16 13 13 6 10 6 6 10 6 0 0 3 6 6 6 0 0 0 0

GEFSSE_con_cape1000_294.txt.gz
Probability
0 13 55 68 58 65 71 68 61 74 68 68 68 61 61 71 71 74 71 77 81 81 77 77 74 77 77 74 74 71 68 65 68 68 68 68 81 71 74 71 61 52 77
3 13 48 65 65 61 65 65 65 71 71 68 68 71 71 74 71 65 71 84 84 74 74 68 74 77 74 68 71 74 65 58 65 65 65 65 68 65 71 68 55 61 77
10 19 45 58 61 58 65 71 68 71 77 81 81 71 68 68 65 74 71 77 84 77 65 68 68 74 65 55 55 71 61 58 65 65 61 29 42 68 71 74 58 65 65
10 13 29 52 61 65 65 68 68 77 74 81 77 71 65 68 74 74 74 74 77 74 61 68 65 55 58 58 58 52 55 65 61 48 32 29 26 65 74 68 61 61 61
6 13 26 45 55 65 65 61 71 71 77 74 74 68 71 74 68 68 71 71 71 65 58 61 58 65 61 61 61 52 48 52 45 32 16 16 23 48 65 71 55 52 39
10 16 26 52 55 61 71 71 68 65 68 65 65 71 65 68 65 61 65 71 71 65 58 55 58 58 58 61 52 58 48 45 19 10 10 16 23 48 61 61 55 45 42
13 16 29 68 68 61 65 68 71 65 68 71 61 65 74 74 68 74 65 68 65 61 55 52 55 48 55 52 52 55 42 29 13 6 6 10 26 55 52 55 52 48 42
13 16 32 61 65 65 61 68 74 65 61 68 71 71 68 68 74 71 61 55 58 58 61 61 52 48 48 45 45 45 42 23 6 6 6 16 32 48 42 55 52 52 42
13 16 23 39 52 65 68 71 65 65 65 71 65 68 65 65 71 65 58 55 52 52 52 52 48 52 39 52 48 45 26 23 16 6 10 16 26 35 32 35 35 39 32
13 13 16 16 26 35 52 65 61 74 74 81 71 68 68 71 61 58 61 65 61 52 48 48 52 52 48 52 48 48 35 23 10 10 16 16 29 35 29 35 42 35 35
13 10 10 10 10 13 32 55 55 65 68 68 58 65 61 35 32 29 52 61 52 48 45 45 45 52 52 45 32 32 29 6 6 10 23 16 29 29 29 35 39 39 39
6 6 3 6 6 10 16 23 35 39 35 32 23 19 16 13 13 26 35 55 61 55 55 48 52 42 23 23 23 16 6 6 6 10 19 32 35 35 26 42 42 45 42
3 3 3 6 6 6 6 10 10 10 10 10 10 13 3 3 6 3 6 16 19 16 10 10 6 10 10 13 13 10 6 6 6 10 13 32 42 42 26 39 42 39 39
3 0 0 3 3 0 0 6 6 3 3 6 6 3 3 0 0 0 0 0 0 0 0 3 3 6 6 6 13 6 3 3 3 10 13 32 42 48 35 39 45 45 42
0 0 0 3 0 0 0 3 6 3 3 3 3 3 3 0 0 0 0 0 0 0 0 0 0 0 0 3 3 3 3 3 3 3 10 19 42 48 39 29 39 39 39
3 3 0 0 0 0 0 3 3 3 3 3 3 3 3 0 0 0 0 0 0 0 0 0 0 3 3 3 3 0 0 3 3 3 6 16 29 42 45 39 35 39 29
0 0 0 0 0 0 0 0 3 3 3 3 3 0 0 0 0 0 0 0 0 0 0 0 3 3 6 3 0 0 3 3 6 6 3 10 16 29 32 32 29 26 26
0 0 0 0 0 0 0 0 0 0 0 0 0 0 0 0 0 0 0 3 3 0 0 3 3 6 3 3 3 3 3 3 3 3 3 3 0 0 16 26 29 26 26
0 0 0 0 0 0 0 0 0 0 0 0 0 0 0 0 0 0 0 3 3 6 3 3 3 3 3 3 3 3 3 3 3 3 3 3 0 0 0 3 19 26 26
0 0 0 6 0 0 0 0 0 0 0 0 0 0 0 0 3 0 0 3 3 6 6 3 3 3 3 3 3 3 3 3 3 3 3 10 6 3 0 0 3 6 16
0 3 3 3 0 0 0 0 0 0 0 0 0 0 0 0 0 3 6 6 3 3 0 3 3 3 3 3 0 0 0 0 3 3 6 6 6 0 6 6 3 3 6
0 3 3 3 0 0 0 0 0 0 0 0 0 0 0 0 0 6 6 3 6 3 3 3 3 3 3 0 3 3 0 0 0 3 3 3 3 3 3 3 0 0 3
0 0 6 3 0 0 0 0 0 0 0 0 0 0 0 0 0 6 13 6 6 10 6 3 3 0 0 0 3 3 0 0 0 0 0 3 3 3 6 3 6 3 0
3 3 3 3 3 0 3 0 3 3 3 3 3 3 3 6 10 13 10 13 10 10 6 10 3 0 0 10 3 0 0 0 0 0 0 0 3 3 6 10 3 3 3
0 0 3 3 3 3 3 3 3 3 3 3 3 3 3 6 13 19 19 19 16 13 10 6 6 6 3 6 3 3 0 0 0 0 6 6 6 6 6 6 3 3 3
0 0 0 3 3 3 3 3 0 3 3 3 3 3 3 6 6 13 13 13 19 23 13 16 10 16 6 3 3 6 6 10 10 3 6 10 6 6 6 6 6 3 3

GEFSSE_con_cape1000_300.txt.gz
Probability
6 16 42 58 68 58 58 55 65 61 55 61 55 61 71 77 68 65 74 68 71 77 68 61 65 61 68 65 65 65 65 65 68 65 61 68 71 74 68 48 58 35 71
6 13 45 52 61 61 55 55 61 65 65 68 68 61 68 77 74 68 74 77 77 71 65 65 71 68 68 68 65 65 61 58 55 58 58 58 65 68 48 48 45 52 65
6 16 26 55 61 61 58 55 61 65 61 68 65 58 68 68 68 65 74 77 71 71 68 71 68 68 65 65 65 65 58 58 58 52 48 26 26 52 58 52 58 61 65
6 16 23 55 58 61 58 65 61 65 61 65 65 65 61 58 58 65 68 74 68 68 58 68 68 65 52 55 55 61 58 58 52 39 29 23 16 39 55 58 58 48 55
10 26 32 58 61 65 68 68 65 71 71 65 65 65 61 58 58 58 65 68 61 61 61 65 68 58 52 55 48 52 52 52 48 26 26 29 32 32 42 58 52 45 42
16 19 42 61 58 61 65 68 68 77 68 68 61 61 61 61 65 68 58 61 61 55 61 61 61 58 55 52 48 45 52 45 26 26 23 26 23 39 32 35 39 45 48
13 26 35 61 61 58 61 65 68 68 71 68 65 65 65 68 71 61 55 55 55 58 58 65 61 61 55 45 42 35 29 29 6 16 26 29 26 45 42 32 29 35 42
16 23 35 45 52 55 58 68 65 65 55 68 61 61 55 58 58 65 52 45 48 45 48 55 55 58 58 45 32 23 23 23 6 0 10 19 32 45 42 39 42 35 29
16 19 32 39 42 42 52 55 52 55 61 65 68 65 61 61 61 55 55 45 39 42 42 48 45 45 35 35 35 26 26 26 13 3 0 16 26 26 32 39 35 42 39
10 19 29 29 35 35 35 55 55 65 61 68 71 61 61 61 58 48 52 52 48 48 52 45 45 39 26 29 29 26 19 13 6 3 19 19 29 26 26 35 32 32 29
16 19 23 26 39 39 26 35 58 55 58 58 65 65 58 26 23 35 39 55 48 55 52 52 42 29 26 32 23 23 19 19 10 6 10 10 23 26 26 29 19 23 32
16 13 26 23 39 35 29 52 55 42 48 58 65 52 42 48 42 19 32 45 42 52 39 39 42 26 23 26 23 29 23 10 13 6 16 23 32 26 23 29 19 26 23
16 10 19 29 39 32 42 52 52 42 65 52 55 55 58 39 35 32 39 55 52 32 23 29 26 23 19 29 29 23 16 6 6 3 16 26 39 45 32 35 32 23 19
16 13 16 19 32 48 55 45 48 48 48 45 52 48 48 42 45 45 55 42 48 48 42 19 29 26 29 29 26 13 13 16 10 10 32 29 35 35 32 39 35 39 35
26 13 19 29 45 58 58 55 39 48 45 39 58 45 48 35 45 45 68 58 39 32 32 42 39 29 42 35 29 23 19 16 10 10 32 29 29 35 39 39 32 35 32
23 23 19 26 39 55 65 68 58 35 55 45 52 52 52 39 55 48 52 52 42 45 39 42 42 48 42 42 32 35 19 19 23 32 26 32 29 35 39 32 32 35 39
26 26 29 26 39 55 45 42 39 35 29 45 45 55 55 42 52 48 48 42 45 45 52 52 52 48 61 42 42 29 29 39 35 26 32 35 39 29 32 32 32 35 35
19 29 32 13 29 48 55 55 35 35 32 42 45 48 52 48 48 52 45 42 48 42 48 61 52 45 45 39 45 45 45 55 32 32 29 26 29 32 32 32 29 29 29
39 42 39 35 42 45 52 55 55 52 52 42 55 55 52 42 42 42 55 61 52 48 48 45 58 55 42 39 39 35 32 39 35 26 29 26 26 32 42 29 29 29 26
35 48 48 48 58 55 55 61 58 55 52 45 48 61 55 42 52 55 52 61 42 52 55 65 71 58 45 42 19 19 26 35 32 35 23 23 26 16 16 29 42 26 26
39 55 58 55 65 71 68 58 52 45 45 45 52 58 61 48 52 58 42 58 55 52 58 55 58 52 35 39 39 29 32 16 23 32 32 29 32 23 23 29 32 35 26
39 61 61 61 61 74 71 71 68 58 39 39 45 58 58 55 52 39 61 42 61 68 68 65 71 45 29 35 45 39 16 23 26 13 29 26 26 26 26 26 35 32 32
32 48 45 55 61 71 71 68 65 68 52 39 45 65 61 58 48 48 45 45 55 45 61 65 68 58 42 39 32 19 13 13 16 16 16 26 32 39 35 29 29 29 23
35 48 52 65 65 68 68 68 61 61 52 48 61 58 68 58 55 48 52 55 65 48 65 55 48 48 55 39 42 48 39 32 29 23 23 26 32 42 42 19 23 32 35
29 39 48 68 71 68 68 71 71 48 52 48 55 68 68 61 58 52 48 55 61 52 61 65 61 52 39 45 39 32 39 45 32 35 35 32 29 29 29 29 23 16 29
42 45 48 61 74 74 71 68 77 68 65 65 71 71 68 65 61 45 48 55 61 61 68 65 61 58 52 55 52 29 29 32 35 32 39 35 35 32 29 26 23 23 29

GEFSSE_con_cape1000_306.txt.gz
Probability
29 29 55 71 68 61 58 55 58 55 58 65 65 58 58 52 58 68 68 68 61 61 65 58 55 52 45 45 65 65 71 65 68 71 71 71 71 68 55 55 52 52 65
19 29 65 74 65 65 58 65 65 65 65 65 65 58 61 58 61 65 65 71 68 58 58 55 58 58 48 52 55 61 58 58 71 68 65 65 61 68 55 52 55 42 65
26 29 48 74 68 65 68 65 65 68 71 61 65 68 58 68 68 65 65 61 68 61 52 55 55 58 55 55 52 52 58 58 58 58 55 35 39 55 55 55 58 58 52
19 29 29 71 71 77 74 68 68 68 61 65 65 68 68 68 68 68 61 61 61 58 55 55 55 52 55 52 48 45 45 52 52 45 35 16 19 45 55 55 52 65 55
13 29 39 61 55 68 71 74 71 68 61 65 58 58 61 61 61 71 65 65 61 55 52 52 52 55 48 45 48 42 39 42 42 39 26 13 23 45 58 55 45 52 58
19 10 39 55 58 52 65 65 71 68 65 61 58 52 58 61 55 68 58 58 55 55 55 52 48 45 52 48 42 39 39 45 35 23 23 13 16 55 48 45 45 48 42
10 10 29 61 68 65 61 74 74 65 65 65 68 65 58 58 52 52 58 55 45 42 48 55 52 39 42 42 39 39 29 32 35 23 23 10 13 35 32 32 35 42 42
19 19 42 74 71 65 65 65 61 58 58 58 61 58 65 74 61 61 58 52 42 48 48 42 42 35 35 45 42 35 29 35 23 6 16 16 32 45 35 26 32 32 26
13 23 39 35 61 71 65 61 61 58 65 55 55 55 58 65 65 61 55 48 52 48 45 39 35 35 32 39 35 29 32 55 29 10 3 16 45 48 32 32 29 26 23
19 26 32 35 42 42 42 71 71 68 68 65 58 65 68 71 65 58 55 48 42 42 42 39 39 45 39 29 39 35 35 42 13 10 19 19 39 29 19 23 32 29 23
26 26 23 29 39 42 35 42 58 71 77 65 65 65 61 48 39 45 42 55 45 42 45 39 39 45 42 32 42 52 45 19 13 10 19 26 45 32 23 19 19 19 23
26 26 32 35 35 42 29 52 55 45 61 61 65 61 61 61 55 29 42 55 52 48 52 58 58 48 35 23 19 42 19 16 16 16 16 35 42 32 26 23 23 19 19
26 29 39 42 52 45 61 58 65 55 74 74 68 71 77 65 45 39 45 55 71 48 48 48 45 32 29 32 35 23 19 3 23 10 10 42 39 32 35 29 23 16 23
32 26 39 48 55 65 61 58 65 52 74 68 77 71 71 77 74 74 77 61 58 58 61 48 52 42 32 32 29 23 16 13 23 13 16 45 42 35 32 32 29 26 29
29 26 42 65 81 87 90 81 52 61 58 61 74 81 77 68 77 71 74 74 61 71 61 65 58 68 58 48 29 23 29 35 32 19 19 48 42 42 35 32 32 29 26
35 45 55 58 77 87 87 81 81 68 81 65 74 71 65 77 84 74 74 68 68 68 77 77 68 65 58 55 48 48 39 39 48 39 26 32 52 45 42 42 39 39 42
45 52 58 55 71 77 77 68 55 65 55 71 74 84 81 81 81 84 81 74 77 77 71 71 71 74 65 61 58 61 55 58 55 52 45 35 29 39 39 39 39 42 39
55 65 61 23 65 81 84 81 68 55 71 74 74 74 77 71 81 90 87 71 84 81 84 84 87 71 71 61 65 65 65 65 35 45 45 48 48 13 32 39 42 39 39
68 77 77 77 68 68 77 81 77 77 77 77 81 77 77 68 71 77 81 90 77 84 84 58 74 74 65 68 58 61 58 58 55 42 48 48 48 45 19 29 35 35 35
74 77 77 77 87 84 81 84 81 77 74 81 81 84 77 68 74 81 84 90 87 84 87 87 81 77 71 68 45 52 52 55 48 48 42 39 42 35 42 26 32 29 35
74 81 81 81 87 87 84 81 77 77 81 84 77 74 71 77 74 84 81 87 90 94 84 74 81 71 61 68 68 65 45 42 45 55 52 42 35 35 42 42 42 29 23
71 77 84 84 84 81 84 87 84 81 81 74 81 74 74 81 84 65 90 84 90 90 77 77 74 68 68 61 61 61 52 42 42 42 52 52 48 42 39 35 45 48 32
61 74 68 77 81 84 81 81 81 81 77 77 81 77 77 77 77 84 77 84 84 84 77 74 77 74 68 58 58 61 61 48 48 48 45 42 42 48 42 45 39 48 48
58 61 74 81 74 77 77 81 81 81 77 81 87 84 81 77 71 71 77 81 81 77 77 68 77 77 68 65 61 68 68 68 48 45 42 52 39 42 48 35 39 35 39
42 55 71 81 77 81 81 81 84 81 84 84 84 84 81 77 77 74 81 77 77 74 74 74 77 74 71 68 65 61 58 55 48 48 42 42 39 42 42 39 42 39 45
48 52 61 77 84 81 77 77 77 84 84 84 87 81 74 81 84 71 71 71 71 71 71 71 71 71 74 74 65 65 65 52 55 48 45 52 48 45 48 42 42 48 39